sat.trackr.live / text

‹ back to catalog

STARLINK-30515

NORAD 57983 · 2023-151V

PAYLOAD ACTIVE UNKNOWN

§ Identity

Operator
Country
US
Launch date
2023-09-30
Launch site
AFETR
Launch vehicle
Mass (kg)
RCS (m²)

Purposes: comms

External: N2YO · Heavens-Above · Gunter

§ Orbital elements

Epoch: 2026-05-24T20:39:57.961728Z

Period
94.27 min
Inclination
43.0027°
Eccentricity
0.0001648
Mean motion
15.27575059 rev/d
Perigee alt
481.9 km
Apogee alt
484.2 km
Semi-major
6,861.2 km
B*
4.2090e-5
RAAN
283.8379°
Arg perigee
270.4306°
Mean anomaly
89.6357°
Rev number
14,719

§ Raw data

STARLINK-305151 57983U 23151V   26144.86108752  .00000896  00000+0  42090-4 0  99992 57983  43.0027 283.8379 0001648 270.4306  89.6357 15.27575059147197

JSON: /api/v1/satellites/57983 · /tle

For live sub-satellite position, see the globe view (requires WebGL).

§ Visibility from observer

Set your observer location to see the next 7 days of passes ≥ 10°. The values pass through the URL so the page stays shareable.

No JS? Fill the form by hand. The geolocation button needs JavaScript.